Regional Weather Roundup
Issued by NWS

Home | Current Version | Previous Version | Graphics & Text | Print | Product List | Glossary On
Versions: 1 2 3 4 5 6 7 8 9 10 11 12 13 14 15 16 17 18 19 20 21 22 23 24 25 26 27 28 29 30 31 32 33 34 35 36 37 38 39 40 41 42 43 44 45 46 47 48 49 50
000
ASUS44 KMEG 300000
RWRTN
TENNESSEE HOURLY STATE WEATHER ROUNDUP
NATIONAL WEATHER SERVICE MEMPHIS TN
700 PM CDT WED MAR 29 2017

TNZ002-004-019-021-049-052-054-088>092-300100-
WEST TENNESSEE

CITY           SKY/WX    TMP DP  RH WIND       PRES   REMARKS
MEMPHIS INTL   CLOUDY    78  55  44 S15G22    29.81S
NWS MEMPHIS      N/A     79 N/A N/A MISG        N/A
JACKSON        CLOUDY    78  58  49 S6        29.83S
DYERSBURG      MOCLDY    77  59  53 VRB5      29.82S
PARIS          CLEAR     73  57  56 S8        29.85R
$$

TNZ008-025-027-028-033-062-065-066-300100-
NORTH MIDDLE TENNESSEE

CITY           SKY/WX    TMP DP  RH WIND       PRES   REMARKS
NASHVILLE      MOCLDY    77  58  51 SE10      29.89F
CLARKSVILLE    CLOUDY    72  57  59 E7        29.86S
SMYRNA         CLEAR     75  60  59 E5        29.90F
CROSSVILLE     CLEAR     72  52  49 VRB6      30.00S
$$

TNZ061-075-076-078-094-096-097-300100-
SOUTH MIDDLE TENNESSEE

CITY           SKY/WX    TMP DP  RH WIND       PRES   REMARKS
TULLAHOMA      PTCLDY    75  55  50 S3        29.94F
WINCHESTER     CLEAR     73  59  60 S7        29.94S
MCMINNVILLE    CLEAR     73  61  64 CALM      29.94S
COLUMBIA       CLEAR     77  61  57 SE8       29.86F
SHELBYVILLE    CLEAR     77  61  57 SE5       29.92F
$$

TNZ017-018-042-046-047-300100-
NORTHEAST TENNESSEE

CITY           SKY/WX    TMP DP  RH WIND       PRES   REMARKS
TRI CITIES     PTCLDY    68  48  48 S5        30.03R
$$

TNZ012-013-036-069-073-074-300100-
CENTRAL EAST TENNESSEE

CITY           SKY/WX    TMP DP  RH WIND       PRES   REMARKS
KNOXVILLE      CLEAR     74  50  42 SE6       29.98S
OAK RIDGE      CLEAR     76  49  38 SE6       29.99S
GATLINBURG     CLEAR     72  46  40 CALM      29.99F
$$

TNZ083-085-099-300100-
SOUTHEAST TENNESSEE

CITY           SKY/WX    TMP DP  RH WIND       PRES   REMARKS
CHATTANOOGA    PTCLDY    78  56  46 SE8       29.94F
$$

SKY/WX REPORTED AS FAIR MEANS FEW OR NO CLOUDS BELOW
12 THOUSAND FEET.





USA.gov is the U.S. government's official web portal to all federal, state and local government web resources and services.